COSMOS 1275 DEB, 12694

Orbit data source: Space-Track

COSMOS 1275 DEB, 12694 is space debris in LEO originally from a launch on Thu, 04 Jun 1981 UTC launched from the Plesetsk Missile And Space Complex (PKMTR). Debris objects in space refer to the collection of defunct objects orbiting the Earth. Examples of debris include non-operational satellites, rocket bodies, and fragments generated from explosions, collisions, or faulty payload assembly.

Loading next visibility...
Identifier
12694, 1981-053AN
Orbit
LEO
Country
Flag of CISCIS
Related business
Manufacturer
Unknown
Mission
Spacecraft
Bus & Motor
Unknown
Mass
Unknown
Launch date (UTC)
1981-06-04 (44 years ago)
Launch vehicle
Unknown
Launch site
Plesetsk Missile And Space Complex (PKMTR)
Object type
Payload
Rocket body
Debris
Shape & HBR
Unknown
Radar Cross Section
Small (<0.1 m²)

Expand to show TLE details & history
Last TLE update: 6 hours ago

TLE from 6 hours ago
0 COSMOS 1275 DEB
1 12694U 81053AN  25242.95530852  .00000487  00000-0  58830-3 0  9997
2 12694  83.0820 306.1579 0112718 319.5602 218.6768 13.62120817183452
Epoch: 2025-08-30T22:55Z
TLE epoch observation values (Epoch: 2025-08-30T22:55:38.656Z)
Latitude
2.44359°
Longitude
162.5695°
Altitude
1,096.142 km
Speed
7.272 km/s
True Right ascension
08h 23m 27s
True Declination
2° 25' 47"
Sunlit
Object was in daylight at epoch
Visualization orbit readout
Latitude
Unknown
Longitude
Unknown
Altitude
Unknown
Speed
Unknown
Apparent Right ascension
Unknown
Apparent Declination
Unknown
Sunlit
N/A
Visualization observer readout
Local Sidereal Time
20:16:17
Azimuth
Unknown
Elevation
Unknown
Doppler factor
Unknown
Orbital elements
Apogee altitude
1,108.604 km
Perigee altitude
941.707 km
Semi-major axis
7,403.292 km
Eccentricity
0.01127
Inclination
83.082°
RAAN
306.1579°
Arg. of periapsis
319.5602°
True anomaly
217.87842°
Mean anomaly
218.6768°
Eccentric anomaly
218.27674°
Mean motion
3.40726 °/min
Orbital period
105.66 mins
BSTAR
0.0005883
Loading maneuver chart data...
Computing Atmospheric mass density...
Loading historical data...
Loading historical data...
Loading historical data...
Loading historical data...
Loading historical data...
Loading historical data...
Loading historical data...

Documentation

Showing up to 5 results
|